Regional Weather Roundup
Issued by NWS New Orleans/Baton Rouge, LA

Home | Current Version | Previous Version | Text Only | Print | Product List | Glossary On
Versions: 1 2 3 4 5 6 7 8 9 10 11 12 13 14 15 16 17 18 19 20 21 22 23 24 25 26 27 28 29 30 31 32 33 34 35 36 37 38 39 40 41 42 43 44 45 46 47 48 49 50
000
ASUS44 KLIX 281511
RWRLIX
NEW ORLEANS REGIONAL WEATHER ROUNDUP
NATIONAL WEATHER SERVICE NEW ORLEANS LA
1000 AM CDT TUE APR 28 2015

NOTE: "FAIR" INDICATES FEW OR NO CLOUDS BELOW 12,000 FEET WITH NO
      SIGNIFICANT WEATHER AND/OR OBSTRUCTIONS TO VISIBILITY.
      SKY/WX - SKY CONDITION AND SIGNIFICANT WEATHER.
      TMP - AIR TEMPERATURE.     DP    - DEWPOINT TEMPERATURE.
      RH  - RELATIVE HUMIDITY.   PRES  - PRESSURE.
      HI  - HEAT INDEX.          WCI   - WIND CHILL INDEX.

*  THESE STATIONS ARE NOT NWS OR FAA STATIONS AND ARE NOT UNDER
   NWS QUALITY CONTROL.

LAZ038-040-048-061>063-065>067-069-281600-
SOUTHEAST LOUISIANA

CITY           SKY/WX    TMP DP  RH WIND       PRES   REMARKS
N.O. AUDUBON   NOT AVBL
N.O. INTL ARPT CLOUDY    68  63  84 NE6       29.83R
N.O. LAKEFRONT CLOUDY    68  63  84 E5        29.83R
SLIDELL        CLOUDY    66  60  81 CALM      29.82S
BATON ROUGE    LGT RAIN  62  57  83 NE5       29.85R
BOOTHVILLE     CLOUDY    72  69  90 NE8       29.81R
BELLE CHASSE   CLOUDY    69  65  86 NE7       29.82R FOG
BOGALUSA*        N/A     68  55  62 CALM      29.85R
GALLIANO*      CLOUDY    73  67  82 NE3       29.81S
NEW ROADS*     CLOUDY    62  55  78 NE7       29.86S
GONZALES*      CLOUDY    65  64  97 NE3       29.83R
HAMMOND*       CLOUDY    64  57  77 N3        29.86R
HOUMA*         CLOUDY    68  64  88 NE9       29.82R
PORT FOURCHON* MOSUNNY   72  68  88 NE10      29.84R

$$

MSZ070-080>082-281600-
SOUTHERN MISSISSIPPI

CITY           SKY/WX    TMP DP  RH WIND       PRES   REMARKS
MCCOMB         CLOUDY    63  51  65 NE5       29.86R
GULFPORT       MOSUNNY   70  60  70 CALM      29.81R
BILOXI         MOSUNNY   69  61  75 VRB2      29.81R
PASCAGOULA     CLOUDY    70  62  76 CALM      29.82R
STENNIS ARPT*  CLOUDY    66  55  68 MISG      29.82S

$$

COASTAL OBSERVATIONS
LAKE AND NEARSHORE STATIONS

STATION/POSITION TIME  TEMP    WIND        PRES    WAVE
                       AIR SEA DIR/SP/G            HT/PER
                 (UTC) (F)     (DEG/KT/KT) (MB)    (FT/S)
PASCAGOULA       1400   65      40/  5/  6 1008.6
WAVELAND YACHT   1400   63 70   40/  5/  7 1009.4
GRAND ISLE       1400   70 75   40/ 10/ 14 1008.6
SOUTHWEST PASS   1400   74 66   10/ 10/ 11 1008.7
NEW CANAL        1400   65      80/  6/  7 1009.9
SHELL BEACH      1400   67 73   30/ 10/ 12 1009.0

OFFSHORE STATIONS

STATION/POSITION TIME  TEMP    WIND        PRES    WAVE
                       AIR SEA DIR/SP/G            HT/PER
                 (UTC) (F)     (DEG/KT/KT) (MB)    (FT/S)
64 S DAUPHIN ISL 1450   75 76  120/  8/ 12 1008.9    5/ 7

$$




USA.gov is the U.S. government's official web portal to all federal, state and local government web resources and services.